Location: Canazei
(46.4667°N, 11.7667°E)
Time: 04:59:26
(UTC+00:00)

ADEOS II - Pass Details

Date: 21 April 2021
Orbit: 798 x 801 km, 98.6° (Epoch: 10 May)

Event Time Altitude Azimuth Distance (km) Brightness Sun altitude
Rises 01:26:06 0° 15° (NNE) 3,318 6.4 -24.3°
Reaches altitude 10° 01:28:27 10° 17° (NNE) 2,384 5.5 -24.1°
Maximum altitude 01:33:43 78° 103° (ESE) 822 2.1 -23.5°
Enters shadow 01:35:03 51° 178° (S) 996 2.2 -23.4°
